Weather in Sanaga

Russia / Republic of Buryatia     50°43′57″N   102°48′11″E
temp.,
°C
wind,
m/s
gust,
m/s
humid.,
%
clouds,
%
prec.,
mm/h
press.,
hPa
HPBL,
m
6 march, sat
sat623:00−17wnw118245 0.0 102520
02:00−17wnw128149 0.0 102620
05:00−15wnw1182100 0.0 102722
08:00−18nw118451 0.0 102920
11:00−9nw01730 0.0 1028222
14:00−3nw136735 0.0 1025534
17:00−3w146899 0.0 1023712
20:00−10wsw1176100 0.0 102421
7 march, sun
sun723:00−13wnw117999 0.0 102421
02:00−16wnw018164 0.0 102320
05:00−17nw11832 0.0 102220
08:00−18wnw11831 0.0 102320
11:00−8nw01730 0.0 1021230
14:00−3nnw02720 0.0 1018465
17:00−2nnw01680 0.0 1016361
20:00−9wsw117833 0.0 101821
8 march, mon
mon823:00−11wnw1179100 0.0 101921
02:00−11wnw1180100 0.0 102021
05:00−13wnw128133 0.0 102221
08:00−14wnw118147 0.0 102520
11:00−5wnw127137 0.0 1024258
14:00−1wnw265947 0.0 1023836
17:00−1wnw26648 0.0 1022839
20:00−9w11754 0.0 102421
9 march, tue
tue923:00−12nnw11790 0.0 102421
02:00−14n01830 0.0 102321
05:00−15nne01850 0.0 102220
08:00−16nw11840 0.0 102220
11:00−7nne017197 0.0 1019187
14:00−2nnw126999 0.0 1017363
17:00−2nw1175100 0.0 1017215
20:00−7w118191 0.0 102121
10 march, wed
wed1023:00−10wnw118264 0.0 102421
02:00−13nw128432 0.0 102521
05:00−14wnw11820 0.0 102620
08:00−15nw11820 0.0 102820
11:00−6ese01710 0.0 1026207
14:00−2ese12700 0.0 1023505
17:00−1ese12680 0.0 1021428
20:00−8se11830 0.0 102221